Home   Weather   Heilbronn   Past weeks

Flag for Germany Past Weather in Heilbronn, Baden-Württemberg, Germany — Yesterday and Last 2 Weeks

Now
64 °F

Clear.


Feels Like: 64 °F
Forecast: 56 / 69 °F
Wind: 1 mph from North

Location: Stuttgart-Echterdingen

Current Time: Aug 18, 2017 at 3:13:46 am

Latest Report: Aug 18, 2017 at 2:20 am


Visibility: 10 mi

Pressure: 30.07 "Hg

Humidity: 94%

Dew Point: 63 °F

Location of HeilbronnLocation

Past Weather in Heilbronn — Graph

°F

Heilbronn Temperature Yesterday

Maximum temperature yesterday: 81 °F (at 3:50 pm)
Minimum temperature yesterday: 61 °F (at 5:50 am)
Average temperature yesterday: 71 °F

High & Low Weather Summary for the Past Weeks

 TemperatureHumidityPressure
High84 °F (Aug 15, 1:20 pm)100% (Aug 10, 1:50 am)30.21 "Hg (Aug 10, 1:50 am)
Low52 °F (Aug 7, 5:50 am)40% (Aug 15, 1:50 pm)29.83 "Hg (Aug 8, 8:50 am)
Average66 °F77%30.07 "Hg
* Reported Aug 3 1:20 am — Aug 18 1:50 am, Heilbronn. Weather by CustomWeather, © 2017

Note: Actual official high and low records may vary slightly from our data, if they occured in-between our weather recording intervals... More about our weather records

Advertising

Heilbronn Weather History for the Previous 24 Hours

Scroll right to see more
 ConditionsComfort  
Time TempWeatherWind HumidityBarometerVisibility
1:50 am
Fri, Aug 18
64 °FClear.1 mph94%30.07 "Hg10 mi
1:20 am64 °FClear.No wind94%30.09 "Hg10 mi
12:50 am64 °FClear.1 mph94%30.09 "Hg10 mi
12:20 am66 °FClear.2 mph88%30.07 "Hg10 mi
11:50 pm
Thu, Aug 17
68 °FClear.1 mph83%30.09 "Hg10 mi
11:20 pm68 °FClear.5 mph88%30.07 "Hg10 mi
10:50 pm70 °FClear.2 mph78%30.07 "Hg10 mi
10:20 pm70 °FClear.1 mph83%30.07 "Hg10 mi
9:50 pm72 °FClear.2 mph78%30.07 "Hg10 mi
9:20 pm73 °FClear.3 mph74%30.07 "Hg10 mi
8:50 pm73 °FClear.2 mph74%30.07 "Hg10 mi
8:28 pm75 °FSunny.2 mph69%30.07 "Hg10 mi
7:50 pm75 °FSunny.5 mph69%30.07 "Hg10 mi
7:20 pm79 °FSunny.8 mph58%30.07 "Hg10 mi
6:50 pm81 °FPassing clouds.5 mph54%30.07 "HgN/A
6:20 pm79 °FPassing clouds.5 mph58%30.07 "HgN/A
5:50 pm79 °FPassing clouds.7 mph54%30.07 "HgN/A
5:20 pm81 °FPassing clouds.7 mph51%30.07 "HgN/A
4:50 pm81 °FSunny.5 mph54%30.07 "Hg10 mi
4:20 pm81 °FScattered clouds.7 mph58%30.07 "HgN/A
3:50 pm81 °FScattered clouds.7 mph54%30.07 "HgN/A
3:20 pm79 °FScattered clouds.6 mph61%30.07 "HgN/A
2:50 pm79 °FScattered clouds.6 mph61%30.07 "HgN/A
2:20 pm79 °FScattered clouds.6 mph61%30.09 "HgN/A
1:50 pm79 °FPartly sunny.8 mph54%30.09 "HgN/A
1:20 pm79 °FPartly sunny.7 mph58%30.09 "HgN/A
12:50 pm77 °FScattered showers. Partly sunny.6 mph65%30.09 "HgN/A
12:20 pm77 °FPartly sunny.5 mph65%30.09 "HgN/A
11:50 am77 °FPartly sunny.7 mph65%30.09 "HgN/A
11:20 am77 °FPartly sunny.3 mph65%30.09 "HgN/A
10:50 am75 °FPartly sunny.2 mph74%30.12 "HgN/A
10:20 am73 °FScattered clouds.3 mph78%30.12 "HgN/A
9:50 am73 °FSunny.2 mph74%30.12 "Hg10 mi
9:20 am70 °FPassing clouds.3 mph83%30.09 "HgN/A
8:50 am68 °FPassing clouds.1 mph83%30.12 "HgN/A
8:20 am66 °FLight fog.1 mph94%30.12 "HgN/A
7:50 am64 °FLight fog.2 mph94%30.12 "HgN/A
7:20 am63 °FLight fog.1 mph94%30.09 "HgN/A
6:50 am61 °FFog.1 mph100%30.09 "HgN/A
6:20 am61 °FFog.1 mph94%30.09 "HgN/A
5:50 am61 °FClear.1 mph100%30.09 "Hg10 mi
5:20 am63 °FClear.2 mph94%30.09 "Hg10 mi
4:20 am63 °FClear.2 mph94%30.09 "Hg10 mi
3:50 am63 °FClear.2 mph94%30.09 "Hg10 mi
3:20 am63 °FPassing clouds.3 mph94%30.09 "HgN/A
Weather by CustomWeather, © 2017

See weather overviewHow to use our weather pages